Regional Weather Roundup
Issued by NWS Grand Forks, ND

Home | Current Version | Previous Version | Graphics & Text | Print | Product List | Glossary On
Versions: 1 2 3 4 5 6 7 8 9 10 11 12 13 14 15 16 17 18 19 20 21 22 23 24 25 26 27 28 29 30 31 32 33 34 35 36 37 38 39 40 41 42 43 44 45 46 47 48 49 50
000
ASUS43 KFGF 220231
RWRFGF
PRAIRIE TO PINES  WEATHER ROUNDUP
NATIONAL WEATHER SERVICE EASTERN NORTH DAKOTA/GRAND FORKS ND
900 PM CDT THU AUG 21 2014

 **SATELLITE DATA USED TO AUGMENT SKY COVER AT AUTOMATED STATIONS**
 *****  WEATHER ACROSS EASTERN NORTH DAKOTA  *****

CITY           SKY/WX    TMP DP  RH WIND       PRES   REMARKS
GRAND FORKS    MOCLDY    72  70  93 N3        29.85R
GRAND FRKS AFB MOCLDY    70  70 100 E2        29.86S
GRAND FRKS NWS   N/A     61 N/A N/A MISG        N/A
DEVILS LAKE    PTCLDY    66  61  82 N7        29.90R
FARGO          CLEAR     73  68  84 CALM      29.86R
WAHPETON ARPT  CLEAR     72  68  88 E3        29.86R
$$

 ***** WEATHER ACROSS CENTRAL AND WESTERN NORTH DAKOTA  *****

CITY           SKY/WX    TMP DP  RH WIND       PRES   REMARKS
BISMARCK       CLEAR     73  61  65 N5        29.94R
MINOT          MOCLDY    67  61  81 N10       29.95R
JAMESTOWN      PTCLDY    71  67  87 N5        29.90R
MINOT AFB      MOCLDY    68  64  88 N12       29.96R
GARRISON         N/A     70  64  81 N7        29.94R
WILLISTON      PTCLDY    69  57  65 NE7       29.99R
DICKINSON      CLOUDY    67  59  75 N7        29.97R
HETTINGER      PTCLDY    68  60  75 NE6       29.97R
$$

 *****  OTHER AIRPORT OBSERVATIONS IN OUR AREA  *****

CITY           SKY/WX    TMP DP  RH WIND       PRES   REMARKS
WALHALLA         N/A     70  70 100 N3        29.90R
GRAFTON AIRPOR FAIR      68  68 100 N6        29.86R
VALLEY CITY AR MOCLDY    73  73 100 N6        29.90R
CANDO          FAIR      64  63  94 N7        29.93S
CAVALIER APRT  CLOUDY    70  66  88 NE3       29.89R
GWINNER        PTCLDY    72  72 100 NW3       29.89R
SHEYENNE NWR     N/A     74  70  86 CALM      29.95S
ROLLA          CLOUDY    66  66 100 N3        29.96R
 ***** THE ABOVE OBSERVATIONS ARE NON NWS ARE NOT QUALITY
       CONTROLLED AND MAY MIS-REPORT RAIN FOR SNOW...
$$

  *****  WEATHER ACROSS NORTHERN MINNESOTA  *****

CITY           SKY/WX    TMP DP  RH WIND       PRES   REMARKS
FLAG ISLAND    CLOUDY    66  64  94 CALM      29.91R
WARROAD        PTCLDY    66  63  88 E6        29.91R
ROSEAU         PTCLDY    70  63  78 E6        29.89S
HALLOCK        CLOUDY    70  66  88 NE5       29.87R
THF RVR FALLS  CLOUDY    72  66  83 SE5       29.88R
BAUDETTE       CLOUDY    67  63  87 E7        29.90R
WASKISH        CLOUDY    70  66  88 CALM      29.90R
CROOKSTON      CLOUDY    73  70  88 S7        29.87R
$$
  *****  WEATHER ACROSS CENTRAL AND WEST MINNESOTA  *****

CITY           SKY/WX    TMP DP  RH WIND       PRES   REMARKS
FOSSTON        CLOUDY    68  64  88 CALM      29.90R
BEMIDJI        CLOUDY    68  65  91 SE5       29.90R
PARK RAPIDS    CLOUDY    70  67  90 SE3       29.89R
ELBOW LAKE     FAIR      71  69  95 E3        29.87R
WADENA         CLOUDY    68  66  94 NE3       29.89R
DETROIT LAKES  CLOUDY    70  68  94 SE3       29.90R
MOORHEAD       CLEAR     72  72 100 CALM      29.87R
FERGUS FALLS   CLEAR     72  70  94 CALM      29.87R
MORRIS MN      CLEAR     72  72 100 CALM      29.86R
STAPLES        CLOUDY    68  66  94 CALM      29.89R FOG
$$
  *****  WEATHER ELSEWHERE ACROSS MINNESOTA  *****

CITY           SKY/WX    TMP DP  RH WIND       PRES   REMARKS
DULUTH         DRIZZLE   63  60  90 E7        29.91R FOG
INTRNTL FALLS  CLOUDY    65  61  87 SE8       29.92R
ELY            CLOUDY    63  57  82 E6        29.95S
CLOQUET        CLOUDY    63  61  94 E8        29.91R FOG
WHEATON        CLEAR     72  68  88 CALM      29.87R
BRAINERD       CLOUDY    66  66 100 NE6       29.89R FOG
HIBBING        CLOUDY    68  61  78 SE5       29.92R
ALEXANDRIA     PTCLDY    71  68  90 CALM      29.88S
SAINT CLOUD    CLOUDY    75  71  87 CALM      29.85R
MINNEAPOLIS    PTCLDY    81  74  79 NE3       29.82R
$$

  *****  WEATHER ACROSS SOUTH DAKOTA  *****

CITY           SKY/WX    TMP DP  RH WIND       PRES   REMARKS
SIOUX FALLS    PTCLDY    76  69  79 N6        29.87R
BROOKINGS      NOT AVBL
WATERTOWN      CLEAR     73  68  84 CALM      29.88R
HURON          PTCLDY    73  66  78 N7        29.87R
SISSETON         N/A     74  71  91 NW3       29.85R
ABERDEEN       CLEAR     71  66  84 NW6       29.89R
MITCHELL       PTCLDY    74  67  78 N6        29.86R
PIERRE         CLEAR     75  63  66 NE9       29.88R
MOBRIDGE       CLEAR     69  65  86 NE6       29.91R
RAPID CITY     PTCLDY    71  55  56 NE12      29.96R
$$

  *****  SOME WEATHER IN NEARBY STATES *****

CITY           SKY/WX    TMP DP  RH WIND       PRES   REMARKS
GLASGOW MT     LGT RAIN  61  59  93 NE12      30.04R
GREAT FALLS MT CLOUDY    57  52  82 NE13      30.13R
CHEYENNE WY    MOCLDY    70  44  39 S14G21    30.18R
SCOTTSBLUFF NE CLOUDY    80  50  34 W7        30.02R
OMAHA NE       PTCLDY    84  74  71 SE5       29.85R HX  91
DES MOINES IA  PTCLDY    82  76  81 SE6       29.86R
DAVENPORT IA   MOCLDY    76  74  93 E3        29.90R
CHICAGO IL     CLOUDY    75  70  84 CALM      29.92R
EAU CLAIRE WI  CLOUDY    76  72  87 SE7       29.85R
LA CROSSE WI   PTCLDY    78  71  79 SE6       29.86S
$$

  *****  SOME NATIONAL WEATHER *****

CITY           SKY/WX    TMP DP  RH WIND       PRES   REMARKS
LA GUARDIA NY  CLOUDY    73  64  73 SE10      30.03S
RALEIGH NC     CLOUDY    78  71  79 CALM      30.06S
ATLANTA GA     PTCLDY    78  71  79 W3        30.13R
NEW ORLEANS LA CLOUDY    79  72  79 CALM      30.11S
OKLAHOMA CITY  PTCLDY    88  71  57 S13       29.93R HX  94
ALBUQUERQUE NM PTCLDY    83  37  19 S6        30.08R
SALT LAKE CITY MOCLDY    75  46  35 S6        30.00S
LOS ANGELES CA PTCLDY    71  63  75 W13       29.91R
BOISE ID       MOCLDY    79  30  16 W6        29.88S
SEATTLE WA     MOSUNNY   68  50  52 SE3       29.98S
$$

*** WEATHER ACROSS MANITOBA...SASKATCHEWAN AND ONTARIO ***
                ***ONTARIO***

CITY           SKY/WX    TMP DP  RH WIND       PRES   REMARKS
GERALDTON      MOCLDY    66  63  88 E2        30.01R
THUNDER BAY    CLOUDY    61  61 100 E8        29.98S FOG
SIOUX LOOKOUT  MOCLDY    64  59  82 SE3       29.94S
TORONTO        PTCLDY    70  64  83 N7        29.97S
BIG TROUT LK   CLOUDY    70  61  73 S8        29.94S
PICKLE LAKE    CLOUDY    66  59  77 S5        29.98R
DRYDEN         LGT RAIN  66  61  82 NW3       29.96R
KENORA         CLOUDY    63  63 100 E3        29.94R
$$
                *** MANITOBA***

CITY           SKY/WX    TMP DP  RH WIND       PRES   REMARKS
BRANDON        LGT RAIN  63  61  94 N9        29.98R
DAUPHIN        CLOUDY    61  57  88 N10       30.01R
ISLAND LAKE    CLOUDY   N/A N/A N/A N3          N/A
PILOT MOUND      N/A     66  64  94 N8          N/A
THE PAS        MOCLDY    63  55  77 N7        30.04R
THOMPSON       CLOUDY    54  54 100 N7        30.03
WINNIPEG       TSTM      68  68 100 NW3       29.91R
LYNN LAKE      CLEAR     54  50  87 MISG      30.11R
CHURCHILL      LGT RAIN  46  45  93 N21G26    30.01R FOG
GILLAM         DRIZZLE   50  50 100 N14       29.99
$$
                ***SASKATCHEWAN***

CITY           SKY/WX    TMP DP  RH WIND       PRES   REMARKS
ESTEVAN        CLOUDY    64  59  82 NE6       30.01R
KINDERSLEY     MOCLDY    59  50  72 N8        30.17R
LLOYDMINSTER   MOCLDY    54  45  71 N7        30.21R
PRINCE ALBERT  MOCLDY    55  50  82 N5        30.14R
REGINA         MOCLDY    63  54  72 N14       30.06R
YORKTON        MOCLDY    61  54  77 N8        30.05R
N. BATTLEFORD  PTCLDY    55  48  76 N6        30.20R
LA RONGE       PTCLDY    57  48  72 W3        30.15R
SASKATOON      MOCLDY    59  50  72 N12G18    30.16R
SWIFT CURRENT  CLOUDY    55  55 100 NW10      30.12S
$$
NOTE: THESE ARE AUTOMATED STATIONS WITH LIMITED QUALITY CONTROL
      "FAIR" INDICATES FEW OR NO CLOUDS BELOW 12,000 FEET WITH NO
      SIGNIFICANT WEATHER AND/OR OBSTRUCTIONS TO VISIBILITY.
      SKY/WX - SKY CONDITION AND SIGNIFICANT WEATHER.
      TMP - AIR TEMPERATURE.    DP   - DEWPOINT TEMPERATURE.
      RH  - RELATIVE HUMIDITY.  PRES - PRESSURE.
      HX  - HEAT INDEX.         WCI  - WIND CHILL INDEX.
$


USA.gov is the U.S. government's official web portal to all federal, state and local government web resources and services.